TimePDT,TemperatureF,Dew PointF,Humidity,Sea Level PressureIn,VisibilityMPH,Wind Direction,Wind SpeedMPH,Gust SpeedMPH,PrecipitationIn,Events,Conditions,WindDirDegrees,DateUTC
12:00 AM,41.0,33.8,76,30.12,15.0,Calm,Calm,-,N/A,,Scattered Clouds,0,2013-03-29 07:00:00
1:00 AM,37.4,33.8,87,30.13,15.0,Calm,Calm,-,N/A,,Scattered Clouds,0,2013-03-29 08:00:00
2:00 AM,35.6,32.0,87,30.14,15.0,Calm,Calm,-,N/A,,Partly Cloudy,0,2013-03-29 09:00:00
3:00 AM,35.6,32.0,87,30.15,15.0,Calm,Calm,-,N/A,,Partly Cloudy,0,2013-03-29 10:00:00
4:00 AM,35.6,32.0,87,30.17,15.0,Calm,Calm,-,N/A,,Partly Cloudy,0,2013-03-29 11:00:00
5:00 AM,32,29,86,30.19,15,Calm,Calm,,,,Scattered Clouds,,2013-03-29 12:00:00
5:00 AM,32.0,30.2,93,30.19,15.0,Calm,Calm,-,N/A,,Partly Cloudy,0,2013-03-29 12:00:00
6:00 AM,30.2,28.4,93,30.21,15.0,Variable,2.3,-,N/A,,Clear,0,2013-03-29 13:00:00
7:00 AM,32.0,30.2,93,30.22,15.0,Calm,Calm,-,N/A,,Partly Cloudy,0,2013-03-29 14:00:00
8:00 AM,37.4,35.6,93,30.24,15.0,Variable,2.3,-,N/A,,Clear,0,2013-03-29 15:00:00
10:00 AM,48.2,35.6,62,30.23,15.0,Calm,Calm,-,N/A,,Clear,0,2013-03-29 17:00:00
11:00 AM,51,36,45,30.22,15,South,4.6,,,,,190,2013-03-29 18:00:00
11:00 AM,51.8,35.6,54,30.22,15.0,SSW,5.8,-,N/A,,Clear,200,2013-03-29 18:00:00
12:00 PM,57.2,37.4,48,30.20,15.0,NNE,4.6,-,N/A,,Partly Cloudy,20,2013-03-29 19:00:00
1:00 PM,60.8,37.4,42,30.19,15.0,Calm,Calm,-,N/A,,Partly Cloudy,0,2013-03-29 20:00:00
2:00 PM,64.4,37.4,37,30.17,15.0,North,3.5,-,N/A,,Partly Cloudy,10,2013-03-29 21:00:00
3:00 PM,64.4,35.6,34,30.15,15.0,SSW,4.6,-,N/A,,Partly Cloudy,200,2013-03-29 22:00:00
4:00 PM,62.6,37.4,39,30.14,15.0,North,5.8,-,N/A,,Scattered Clouds,350,2013-03-29 23:00:00
5:00 PM,58,38,35,30.14,15,North,6.9,,,,Scattered Clouds,10,2013-03-30 00:00:00
5:00 PM,57.2,37.4,48,30.14,15.0,North,8.1,-,N/A,,Partly Cloudy,10,2013-03-30 00:00:00
6:00 PM,57.2,39.2,51,30.14,15.0,North,9.2,-,N/A,,Scattered Clouds,360,2013-03-30 01:00:00
7:00 PM,53.6,37.4,54,30.15,15.0,North,5.8,-,N/A,,Partly Cloudy,10,2013-03-30 02:00:00
8:00 PM,48.2,37.4,66,30.17,15.0,North,6.9,-,N/A,,Scattered Clouds,10,2013-03-30 03:00:00
10:00 PM,42.8,32.0,66,30.22,15.0,Calm,Calm,-,N/A,,Partly Cloudy,0,2013-03-30 05:00:00
11:00 PM,40,31,59,30.24,15,Calm,Calm,,,,Clear,,2013-03-30 06:00:00
11:00 PM,41.0,30.2,65,30.24,15.0,Calm,Calm,-,N/A,,Partly Cloudy,0,2013-03-30 06:00:00